Location: Enborne
(51.3833°N, 1.3667°W)
Time: 00:38:24
(UTC+00:00)

NOSS 2-2 (C) - Pass Details

Date: 20 January 2021
Orbit: 463 x 1745 km, 63.3° (Epoch: 03 March)

Event Time Altitude Azimuth Distance (km) Brightness Sun altitude
Rises 19:42:25 0° 313° (NW) 2,854 7.7 -28.7°
Reaches altitude 10° 19:44:36 10° 324° (NW) 2,080 6.7 -29.1°
Enters shadow 19:46:56 25° 348° (NNW) 1,448 5.5 -29.4°
